521  
ASHW40 PHFO 111512  
RWRHI  
 
WEATHER ROUNDUP FOR HAWAII  
NATIONAL WEATHER SERVICE HONOLULU HI  
500 AM HST MON DEC 11 2017  
 
THIS IS AN AUTOMATED REPORT THAT HAS NOT BEEN QUALITY CONTROLLED.  
 
NOTE..."FAIR" INDICATES FEW OR NO CLOUDS BELOW 12,000 FEET WITH NO  
SIGNIFICANT WEATHER AND/OR S TO VISIBILITY
.  
 
* - THESE SITES REPORT LIMITED FIELDS  
# - BUOY DATA PROVIDED BY PACIFIC ISLANDS OCEAN OBSERVING SYSTEM.  
 
HIZ001>004-111600-  
KAUAI-NIIHAU-  
 
CITY SKY/WX TMP DP RH WIND PRES REMARKS
 
LIHUE APT CLEAR 62 62 100 W8 29.97S  
PORT ALLEN* N/A 64 N/A N/A NE7 N/A  
POIPU* N/A 64 N/A N/A NW2 N/A  
PRINCEVILLE* NOT AVBL  
KOKOLE POINT* NOT AVBL  
MOLOAA DAIRY* N/A 68 63 83 W2 N/A  
WAIMEA HTS* NOT AVBL  
PUU OPAE* NOT AVBL  
PUU LUA* NOT AVBL  
MAKAHA RIDGE* NOT AVBL  

 
 
HIZ005>011-111600-  
OAHU-  
 
CITY SKY/WX TMP DP RH WIND PRES REMARKS
 
HONOLULU MOCLDY 73 65 75 CALM 29.96R  
KALAELOA CLOUDY 68 65 90 NE3 29.97R  
KANEOHE MCB CLOUDY 72 69 90 CALM 29.94R  
WHEELER FIELD MOCLDY 67 66 96 NW3 30.00R  
BELLOWS* NOT AVBL  
KAHUKU* NOT AVBL  
WHEELER* NOT AVBL  
WAIANAE HARBOR NOT AVBL  
DILLINGHAM* NOT AVBL  
KAHUKU TRN* N/A 79 77 94 CALM N/A  
KAWAILOA* N/A 66 63 88 VRB3 N/A  
KII* N/A 70 68 94 SW3 N/A  
MAKUA RANGE* N/A 72 64 78 W5 N/A  
OAHU FOREST NW NOT AVBL  
SCHOFIELD BRK* N/A 64 63 94 N1 N/A  
SCHOFIELD S* NOT AVBL  
WAIANAE VLY* NOT AVBL  
KUAOKALA* NOT AVBL  
HONOULIUULI* NOT AVBL  
MOKUOLOE IS* NOT AVBL  
PALEHUA* NOT AVBL  
WAIAWA PHB* NOT AVBL  

 
 
HIZ012>013-111600-  
MOLOKAI-  
 
CITY SKY/WX TMP DP RH WIND PRES REMARKS
 
MOLOKAI AIRPT CLEAR 62 62 100 N3 29.97R  
KALAUPAPA NOT AVBL  
MAKAPULAPAI* NOT AVBL  
MOLOKAI 1* NOT AVBL  
PUU ALII* NOT AVBL  

 
 
HIZ016-111600-  
KAHOOLAWE-  
 
CITY SKY/WX TMP DP RH WIND PRES REMARKS
 
KAHOOLAWE* NOT AVBL  
HAKIOAWA* NOT AVBL  
HONOKANAIA* NOT AVBL  
KANELOA* N/A 68 64 88 NE5G12 30.01S  
KEALIALALO* NOT AVBL  
LUA MAKIKA* NOT AVBL  

 
 
HIZ014>015-111600-  
LANAI-  
 
CITY SKY/WX TMP DP RH WIND PRES REMARKS
 
LANAI CITY FAIR 62 60 93 E7 30.01R  
LANAI 1* NOT AVBL  

 
 
HIZ017>028-111600-  
MAUI-  
 
CITY SKY/WX TMP DP RH WIND PRES REMARKS
 
KAHULUI CLOUDY 62 61 96 SW6 29.95S  
KAPALUA-W MAUI NOT AVBL  
HANA AIRPORT PTCLDY 63 63 100 CALM 29.98S  
HANA* N/A 66 N/A N/A S2 N/A  
HALEAKALA SUMM N/A 45 -6 12 SW7 N/A  
MAALAEA BAY* NOT AVBL  
HALEAKALA* NOT AVBL  
KAUPO GAP* NOT AVBL  
KULA 1* N/A N/A N/A N/A SE8 N/A  

 
 
HIZ023>026-111600-  
BIG ISLAND OF HAWAII COAST AND LOWER SLOPES-  
 
CITY SKY/WX TMP DP RH WIND PRES REMARKS
 
KAILUA KONA CLEAR 70 62 76 NE6 29.94R  
HILO CLEAR 62 54 74 SW8 29.96R  
HONOKAA* N/A 61 N/A N/A VRB1 N/A  
KAWAIHAE MWT* N/A 72 N/A N/A N3 N/A  
KAWAIHAE* NOT AVBL  
SOUTH POINT* N/A 64 N/A N/A NW9 N/A  
UPOLU AIRPORT* NOT AVBL  
KAMUELA* CLOUDY 55 54 94 SE5 30.05R  
HAKALAU* N/A N/A N/A N/A SW2 N/A  
KALOKO-HONOKO* NOT AVBL  
PALI 2* N/A 54 54 100 S8 N/A  
KEALAKOMO* N/A 70 63 78 N6 N/A  
KAUPULEHU* NOT AVBL  
KAPAPALA* N/A 54 51 89 N3G9 N/A  
LOWER KAHUKU* NOT AVBL  
PUHE CS* NOT AVBL  
PUHO CS* NOT AVBL  
PTA KEAMUKU* N/A 54 54 100 SE7 N/A  
WAIKOLOA* NOT AVBL  

 
 
HIZ027>028-111600-  
BIG ISLAND OF HAWAII INTERIOR AND SUMMMITS-  
 
CITY SKY/WX TMP DP RH WIND PRES REMARKS
 
BRADSHAW FIELD CLOUDY 40 26 56 SE6 30.24R  
MK VISITOR CEN N/A 45 3 18 NW9 N/A  
MAUNA KEA* N/A 37 -15 10 SW21 N/A WCI 27  
MAUNA LOA* N/A N/A N/A N/A MISG N/A  
MAUNA LOA 1* NOT AVBL  
PTA KIPUKA* N/A N/A N/A N/A W6 N/A  
PTA RANGE 17* N/A 46 34 61 W8 N/A  
PTA WEST* N/A 48 36 61 E7G17 N/A  
NENE CABIN* NOT AVBL  
AHUMOA* NOT AVBL  
PTA PORTABLE* NOT AVBL  
PUU MALI* N/A N/A N/A N/A SW10 N/A  

 
 
HIC003-111600-  
NORTHWEST ISLANDS-  
 
CITY SKY/WX TMP DP RH WIND PRES REMARKS
 
MIDWAY ISLAND CLOUDY 66 55 68 N9G16 30.08S  
MIDWAY NOS* NOT AVBL  
FRENCH FRIGATE NOT AVBL  

 
 
PHZ110>124-180-111600-  
BUOY REPORTS  
 
STATION/POSITION TIME TEMP WIND PRES WAVE SWELL
 
AIR SEA DIR/SP/G HT/PER HT/DIR  
(UTC) (F) (DEG/KT/KT) (MB) (FT/S) (FT/D)  
BUOY 51001 1450 72 75 250/ 12/ 16 1013.0F 9/11 8  
BUOY 51101 1450 72 75 240/ 10/ 14 1013.2F 9/12 8/330  
BUOY 51100 NOT AVBL  
BUOY 51002 1450 77 78 70/ 12/ 16 1013.0R 10/12 10/350  
BUOY 51003 1450 70 77 260/ 4/ 6 1014.2R 9/14 10/340  
BUOY 51004 1450 77 79 80/ 12/ 16 1013.2R 11/15 11/340  
WAIMEA BAY# 1402 75 N/A 10/13 8/340  
MOKAPU POINT# 1434 77 N/A 8/13 7/350  
LANAI# NOT AVBL  
BARBERS PT 2# NOT AVBL  
PAUWELA# 1430 78 N/A 10/13 8/330  
HILO# 1457 77 N/A 10/14 8/340  
KANEOHE BAY# NOT AVBL  
KANEOHE BAY 2# NOT AVBL  
HANALEI# 1452 76 N/A 10/13 8/340  
KAHULUI HARBOR 1436 66 77 180/ 2/ 3 1014.2R  
HONOLULU HARBOR 1448 72 78 120/ 1/ 1 1015.1R  
PEARL HARBOR# 1430 78 N/A 1/ 8  
KILO NALU NOT AVBL  
HILO HARBOR 1448 66 76 210/ 5/ 8 1013.9R  
MOKUOLOE 1436 69 75 240/ 1/ 3 1014.5R  
NAWILIWILI 1448 65 260/ 8/ 9 1014.5F  
WHOTS BUOY NOT AVBL  
BUOY 51028 NOT AVBL  

 
   
.....................KEY.....................................
 
 
SKY/WX - SKY CONDITIONS/PRESENT WEATHER  
TMP - TEMPERATURE IN FAHRENHEIT  
DWPT - DEWPOINT IN FAHRENHEIT  
RH - RELATIVE HUMIDITY IN PERCENT  
WIND - DIRECTION AND SPEED /MPH FOR ISLANDS...KTS FOR BUOYS/  
PRES - MEAN SEA LEVEL PRESSURE IN INCHES OF HG  
VSB - VISIBILITY IN MILES  
HX - HEAT INDEX  
WCI - WIND CHILL INDEX  
VRB - VARIABLE WIND DIRECTION  
N/A - NOT AVAILABLE  
 
 
CLICK HERE TO GO TO PREVIOUS BULLETINS.

The Nexlab HI Page Main Text Page